When you browse on this site, cookies collect data to enhance your experience and personalize the content and advertising you see.
Visit our Privacy Policy to learn more. By continuing to use the site, you agree to this use of cookies and data.
  • In Switzerland
  • List of Countries
  • For 7 days
  • Water Temperature
  • Satellite Maps
  • Weather Map
  • Weather Widgets
  • user-avatar
    Login

    Hourly Weather Beijing

    Today, 24 June, Monday

    Time Temperature Precipitation Wind Pressure Humidity
    00:00 +30°C° 0 mm 2 mps 752 mmHg 38%
    01:00 +29°C° 0 mm 2 mps 752 mmHg 39%
    02:00 +28°C° 0 mm 1 mps 752 mmHg 40%
    03:00 +28°C° 0 mm 1 mps 752 mmHg 42%
    04:00 +27°C° 0 mm 1 mps 752 mmHg 43%
    05:00 +27°C° 0 mm 1 mps 752 mmHg 44%
    06:00 +28°C° 0 mm 1 mps 752 mmHg 41%
    07:00 +29°C° 0 mm 1 mps 752 mmHg 38%
    08:00 +31°C° 0 mm 1 mps 752 mmHg 34%
    09:00 +33°C° 0 mm 1 mps 752 mmHg 30%
    10:00 +35°C° 0 mm 1 mps 751 mmHg 26%
    11:00 +37°C° 0 mm 1 mps 751 mmHg 23%
    12:00 +39°C° 0 mm 2 mps 750 mmHg 20%
    13:00 +40°C° 0 mm 3 mps 750 mmHg 17%
    14:00 +42°C° 0 mm 4 mps 750 mmHg 16%
    15:00 +42°C° 0 mm 4 mps 749 mmHg 16%
    16:00 +42°C° 0 mm 4 mps 749 mmHg 15%
    17:00 +42°C° 0 mm 4 mps 749 mmHg 14%
    18:00 +41°C° 0 mm 4 mps 749 mmHg 16%
    19:00 +40°C° 0 mm 4 mps 749 mmHg 17%
    20:00 +38°C° 0 mm 3 mps 749 mmHg 19%
    21:00 +36°C° 0 mm 3 mps 749 mmHg 22%
    22:00 +35°C° 0 mm 3 mps 750 mmHg 25%
    23:00 +34°C° 0 mm 3 mps 750 mmHg 29%

    Tomorrow, 25 June, Tuesday

    Time Temperature Precipitation Wind Pressure Humidity
    00:00 +33°C° 0 mm 3 mps 750 mmHg 30%
    01:00 +31°C° 0 mm 2 mps 750 mmHg 31%
    02:00 +30°C° 0 mm 2 mps 750 mmHg 32%
    03:00 +30°C° 0 mm 2 mps 750 mmHg 35%
    04:00 +29°C° 0 mm 2 mps 750 mmHg 37%
    05:00 +28°C° 0 mm 2 mps 751 mmHg 39%
    06:00 +30°C° 0 mm 2 mps 751 mmHg 37%
    07:00 +31°C° 0 mm 2 mps 751 mmHg 35%
    08:00 +32°C° 0 mm 2 mps 751 mmHg 32%
    09:00 +35°C° 0 mm 2 mps 750 mmHg 29%
    10:00 +36°C° 0 mm 2 mps 750 mmHg 25%
    11:00 +38°C° 0 mm 2 mps 750 mmHg 22%
    12:00 +39°C° 0 mm 2 mps 750 mmHg 20%
    13:00 +40°C° 0 mm 3 mps 749 mmHg 18%
    14:00 +42°C° 0 mm 4 mps 748 mmHg 17%
    15:00 +42°C° 0 mm 4 mps 748 mmHg 16%
    16:00 +42°C° 0 mm 4 mps 748 mmHg 16%
    17:00 +42°C° 0 mm 4 mps 748 mmHg 15%
    18:00 +41°C° 0 mm 5 mps 748 mmHg 18%
    19:00 +39°C° 0 mm 5 mps 748 mmHg 21%
    20:00 +37°C° 0 mm 5 mps 748 mmHg 23%
    21:00 +36°C° 0 mm 4 mps 748 mmHg 25%
    22:00 +35°C° 0 mm 4 mps 749 mmHg 27%
    23:00 +34°C° 0 mm 4 mps 749 mmHg 29%

    Day after tomorrow, 26 June, Wednesday

    Time Temperature Precipitation Wind Pressure Humidity
    00:00 +33°C° 0 mm 3 mps 749 mmHg 30%
    01:00 +31°C° 0 mm 3 mps 749 mmHg 32%
    02:00 +31°C° 0 mm 3 mps 749 mmHg 33%
    03:00 +30°C° 0 mm 3 mps 749 mmHg 35%
    04:00 +29°C° 0 mm 3 mps 749 mmHg 37%
    05:00 +28°C° 0 mm 2 mps 749 mmHg 38%
    06:00 +29°C° 0 mm 2 mps 749 mmHg 37%
    07:00 +30°C° 0 mm 2 mps 749 mmHg 35%
    08:00 +31°C° 0 mm 2 mps 749 mmHg 33%
    09:00 +34°C° 0 mm 2 mps 749 mmHg 30%
    10:00 +35°C° 0 mm 2 mps 749 mmHg 27%
    11:00 +37°C° 0 mm 2 mps 749 mmHg 24%
    12:00 +38°C° 0 mm 3 mps 748 mmHg 23%
    13:00 +38°C° 0 mm 3 mps 748 mmHg 22%
    14:00 +40°C° 0 mm 4 mps 747 mmHg 21%
    15:00 +40°C° 0 mm 4 mps 747 mmHg 21%
    16:00 +41°C° 0 mm 4 mps 746 mmHg 20%
    17:00 +41°C° 0 mm 4 mps 746 mmHg 20%
    18:00 +38°C° 0 mm 4 mps 746 mmHg 22%
    19:00 +37°C° 0 mm 4 mps 746 mmHg 25%
    20:00 +36°C° 0 mm 5 mps 746 mmHg 27%
    21:00 +34°C° 0 mm 4 mps 746 mmHg 30%
    22:00 +31°C° 0 mm 3 mps 747 mmHg 33%
    23:00 +30°C° 0 mm 3 mps 747 mmHg 36%

    27 June, Thursday

    Time Temperature Precipitation Wind Pressure Humidity
    00:00 +29°C° 0 mm 3 mps 747 mmHg 40%
    01:00 +28°C° 0 mm 2 mps 747 mmHg 45%
    02:00 +27°C° 0 mm 2 mps 746 mmHg 49%
    03:00 +27°C° 0 mm 2 mps 746 mmHg 51%
    04:00 +26°C° 0 mm 2 mps 746 mmHg 53%
    05:00 +26°C° 0 mm 1 mps 746 mmHg 55%
    06:00 +27°C° 0 mm 1 mps 746 mmHg 52%
    07:00 +28°C° 0 mm 1 mps 746 mmHg 50%
    08:00 +29°C° 0 mm 1 mps 746 mmHg 47%
    09:00 +31°C° 0 mm 1 mps 746 mmHg 41%
    10:00 +33°C° 0 mm 1 mps 745 mmHg 36%
    11:00 +35°C° 0 mm 1 mps 745 mmHg 30%
    12:00 +35°C° 0 mm 1 mps 745 mmHg 29%
    13:00 +37°C° 0 mm 2 mps 744 mmHg 27%
    14:00 +38°C° 0 mm 3 mps 744 mmHg 25%
    15:00 +38°C° 0 mm 3 mps 744 mmHg 24%
    16:00 +39°C° 0 mm 3 mps 743 mmHg 24%
    17:00 +39°C° 0 mm 3 mps 743 mmHg 23%
    18:00 +38°C° 0 mm 3 mps 743 mmHg 24%
    19:00 +37°C° 0 mm 2 mps 743 mmHg 25%
    20:00 +36°C° 0 mm 2 mps 743 mmHg 27%
    21:00 +35°C° 0 mm 2 mps 744 mmHg 28%
    22:00 +34°C° 0 mm 2 mps 744 mmHg 30%
    23:00 +33°C° 0 mm 1 mps 744 mmHg 31%

    28 June, Friday

    Time Temperature Precipitation Wind Pressure Humidity
    00:00 +32°C° 0 mm 2 mps 744 mmHg 35%
    01:00 +31°C° 0 mm 2 mps 744 mmHg 38%
    02:00 +30°C° 0 mm 2 mps 744 mmHg 42%
    03:00 +30°C° 0 mm 2 mps 744 mmHg 44%
    04:00 +29°C° 0 mm 2 mps 744 mmHg 45%
    05:00 +29°C° 0 mm 2 mps 744 mmHg 47%
    06:00 +29°C° 0 mm 2 mps 743 mmHg 46%
    07:00 +29°C° 0 mm 2 mps 743 mmHg 45%
    08:00 +29°C° 0 mm 1 mps 743 mmHg 45%
    09:00 +31°C° 0 mm 2 mps 743 mmHg 40%
    10:00 +34°C° 0 mm 2 mps 743 mmHg 36%
    11:00 +36°C° 0 mm 3 mps 743 mmHg 31%
    12:00 +36°C° 0.1 mm 3 mps 742 mmHg 31%
    13:00 +37°C° 0.1 mm 3 mps 742 mmHg 31%
    14:00 +37°C° 0.1 mm 3 mps 741 mmHg 31%
    15:00 +36°C° 0.3 mm 3 mps 741 mmHg 34%
    16:00 +35°C° 0.3 mm 2 mps 741 mmHg 38%
    17:00 +34°C° 0.3 mm 2 mps 741 mmHg 41%
    18:00 +31°C° 0.6 mm 2 mps 741 mmHg 48%
    19:00 +30°C° 0.6 mm 3 mps 741 mmHg 55%
    20:00 +28°C° 0.6 mm 4 mps 741 mmHg 62%
    21:00 +28°C° 0.8 mm 4 mps 742 mmHg 65%
    22:00 +27°C° 0.8 mm 3 mps 742 mmHg 67%
    23:00 +27°C° 0.8 mm 3 mps 742 mmHg 70%

    29 June, Saturday

    Time Temperature Precipitation Wind Pressure Humidity
    00:00 +26°C° 0.3 mm 2 mps 743 mmHg 70%
    01:00 +26°C° 0.3 mm 2 mps 743 mmHg 71%
    02:00 +26°C° 0.3 mm 1 mps 743 mmHg 72%
    03:00 +25°C° 0 mm 1 mps 743 mmHg 72%
    04:00 +25°C° 0 mm 1 mps 744 mmHg 72%
    05:00 +25°C° 0 mm 1 mps 744 mmHg 73%
    06:00 +26°C° 0 mm 2 mps 744 mmHg 61%
    07:00 +28°C° 0 mm 2 mps 744 mmHg 49%
    08:00 +29°C° 0 mm 3 mps 744 mmHg 37%
    09:00 +31°C° 0 mm 3 mps 744 mmHg 32%
    10:00 +34°C° 0 mm 3 mps 743 mmHg 27%
    11:00 +35°C° 0 mm 3 mps 743 mmHg 21%
    12:00 +36°C° 0 mm 4 mps 743 mmHg 19%
    13:00 +38°C° 0 mm 4 mps 742 mmHg 18%
    14:00 +40°C° 0 mm 5 mps 742 mmHg 16%
    15:00 +40°C° 0 mm 4 mps 742 mmHg 16%
    16:00 +38°C° 0 mm 4 mps 742 mmHg 16%
    17:00 +38°C° 0 mm 4 mps 741 mmHg 16%
    18:00 +37°C° 0 mm 4 mps 742 mmHg 18%
    19:00 +36°C° 0 mm 3 mps 742 mmHg 19%
    20:00 +35°C° 0 mm 2 mps 742 mmHg 21%
    21:00 +34°C° 0 mm 2 mps 743 mmHg 22%
    22:00 +33°C° 0 mm 3 mps 744 mmHg 24%
    23:00 +31°C° 0 mm 3 mps 744 mmHg 25%
    Show more